CW2969 Weather Reports


time (UTC)temp
F
wind
direction
speed
knots
gust
knots
rain 1hr
in
rain 24hr
in
rain mn
in
humidity
%
barometer
mb
20220930154009 74 96 0.0 6.1 0.00 0.00 0.00 40 1018.3
20220930153009 73 128 0.0 1.7 0.00 0.00 0.00 41 1018.3
20220930152009 73 120 0.0 0.9 0.00 0.00 0.00 41 1018.2
20220930150009 71 304 0.9 1.7 0.00 0.00 0.00 44 1018.3
20220930145008 71 121 0.9 2.6 0.00 0.00 0.00 43 1018.3
20220930143008 70 194 0.9 0.9 0.00 0.00 0.00 48 1018.2
20220930141008 68 103 0.0 0.0 0.00 0.00 0.00 53 1018.3
20220930140007 67 91 0.0 0.0 0.00 0.00 0.00 55 1018.2
20220930134007 64 32 0.0 0.9 0.00 0.00 0.00 61 1018.1
20220930133007 61 329 0.0 0.0 0.00 0.00 0.00 68 1018.1
20220930131007 57 53 0.0 0.0 0.00 0.00 0.00 75 1017.9
20220930125006 57 53 0.0 0.0 0.00 0.00 0.00 75 1018.0
20220930124006 57 46 0.0 0.0 0.00 0.00 0.00 74 1017.9
20220930123006 57 46 0.0 0.0 0.00 0.00 0.00 74 1017.9
20220930120006 59 46 0.0 0.0 0.00 0.00 0.00 71 1017.8
20220930115006 59 46 0.0 0.0 0.00 0.00 0.00 70 1018.0
20220930112006 61 46 0.0 0.0 0.00 0.00 0.00 66 1018.0
20220930110005 62 46 0.0 0.0 0.00 0.00 0.00 64 1018.0
20220930105005 62 16 0.0 0.0 0.00 0.00 0.00 63 1018.0
20220930104005 63 16 0.0 0.0 0.00 0.00 0.00 62 1018.1
20220930102005 63 104 0.0 0.0 0.00 0.00 0.00 62 1018.0
20220930101005 64 105 0.0 0.0 0.00 0.00 0.00 64 1017.9
20220930100005 64 78 0.0 0.0 0.00 0.00 0.00 64 1018.0
20220930095004 64 82 0.0 0.0 0.00 0.00 0.00 64 1017.8
20220930094004 64 93 0.0 0.0 0.00 0.00 0.00 64 1017.8
20220930092004 64 111 0.0 2.6 0.00 0.00 0.00 66 1017.7
20220930091004 64 81 0.0 0.0 0.00 0.00 0.00 67 1017.6
20220930090004 64 41 0.0 0.0 0.00 0.00 0.00 68 1017.6
20220930085004 64 42 0.0 0.0 0.00 0.00 0.00 68 1017.6
20220930084004 64 42 0.0 0.0 0.00 0.00 0.00 68 1017.6
20220930083004 64 44 0.0 0.0 0.00 0.00 0.00 68 1017.7
20220930082004 64 44 0.0 0.0 0.00 0.00 0.00 68 1017.6
20220930081004 65 73 0.0 0.0 0.00 0.00 0.00 67 1017.7
20220930075003 66 73 0.0 0.0 0.00 0.00 0.00 65 1017.8
20220930073003 66 85 0.9 0.9 0.00 0.00 0.00 66 1017.8
20220930072003 66 99 0.0 0.0 0.00 0.00 0.00 66 1017.6
20220930071003 66 99 0.0 0.0 0.00 0.00 0.00 65 1017.6
20220930070003 66 99 0.0 0.0 0.00 0.00 0.00 65 1017.5
20220930065003 66 117 0.0 0.0 0.00 0.00 0.00 64 1017.5
20220930063002 67 117 0.0 0.0 0.00 0.00 0.00 61 1017.8
20220930062002 68 117 0.0 0.0 0.00 0.00 0.00 60 1017.6
20220930060002 70 117 0.0 0.0 0.00 0.00 0.00 56 1017.7
20220930055002 70 117 0.0 0.0 0.00 0.00 0.00 54 1017.6
20220930053002 72 117 0.0 0.9 0.00 0.00 0.00 51 1017.7
20220930052002 73 117 0.0 0.0 0.00 0.00 0.00 49 1017.7
20220930051002 73 112 1.7 1.7 0.00 0.00 0.00 49 1017.7
20220930045031 74 153 0.0 2.6 0.00 0.00 0.00 46 1017.8
20220930044031 75 108 0.0 0.0 0.00 0.00 0.00 46 1017.8
20220930041031 77 146 0.0 2.6 0.00 0.00 0.00 42 1017.7
20220930040030 77 140 0.9 0.9 0.00 0.00 0.00 42 1017.8
20220930035030 77 126 0.0 1.7 0.00 0.00 0.00 42 1017.7
20220930034030 77 100 0.0 3.5 0.00 0.00 0.00 42 1017.8
20220930033030 77 159 0.0 1.7 0.00 0.00 0.00 43 1017.8
20220930032030 76 127 0.9 4.3 0.00 0.00 0.00 44 1017.6
20220930031030 76 132 0.0 0.0 0.00 0.00 0.00 45 1017.6
20220930030030 75 152 0.0 0.9 0.00 0.00 0.00 46 1017.6
20220930024030 75 155 0.0 0.9 0.00 0.00 0.00 48 1017.3
20220930023030 76 155 0.0 0.0 0.00 0.00 0.00 46 1017.2
20220930014030 75 194 0.0 0.0 0.00 0.00 0.00 49 1016.6
20220930012029 76 195 0.9 1.7 0.00 0.00 0.00 46 1016.1
20220930011029 78 172 0.0 0.0 0.00 0.00 0.00 44 1016.2
20220930010029 79 165 0.0 0.9 0.00 0.00 0.00 41 1016.2
20220930005028 81 157 0.9 1.7 0.00 0.00 0.00 39 1016.0
20220930003030 85 153 0.9 0.9 0.00 0.00 0.00 36 1016.0
20220930002028 87 130 0.0 0.0 0.00 0.00 0.00 32 1015.9
20220930001028 88 130 0.0 0.9 0.00 0.00 0.00 31 1016.1
20220929235027 90 133 0.0 0.0 0.00 0.00 0.00 31 1016.1
20220929225027 93 202 0.0 1.7 0.00 0.00 0.00 26 1016.5
20220929220026 91 317 0.9 0.9 0.00 0.00 0.00 27 1016.9
20220929215026 91 99 1.7 5.2 0.00 0.00 0.00 26 1017.0
20220929214026 92 348 0.0 1.7 0.00 0.00 0.00 26 1017.2
20220929213026 92 55 0.0 0.9 0.00 0.00 0.00 26 1017.2
20220929212026 92 99 0.9 2.6 0.00 0.00 0.00 25 1017.3
20220929211026 93 325 1.7 1.7 0.00 0.00 0.00 26 1017.5
20220929210025 92 226 0.0 0.9 0.00 0.00 0.00 26 1017.5
20220929205025 92 98 0.9 1.7 0.00 0.00 0.00 26 1017.7
20220929204026 92 348 3.5 3.5 0.00 0.00 0.00 26 1017.8
20220929203025 91 101 1.7 1.7 0.00 0.00 0.00 27 1018.0
20220929202025 91 148 0.0 1.7 0.00 0.00 0.00 27 1018.2
20220929201025 90 122 1.7 3.5 0.00 0.00 0.00 27 1018.2
20220929200025 91 40 0.9 2.6 0.00 0.00 0.00 27 1018.5
20220929195025 92 71 0.9 2.6 0.00 0.00 0.00 27 1018.7
20220929194024 91 103 1.7 5.2 0.00 0.00 0.00 26 1019.0
20220929190024 89 355 1.7 3.5 0.00 0.00 0.00 28 1019.8
20220929185024 89 251 0.0 0.9 0.00 0.00 0.00 28 1020.1
20220929184024 90 61 0.0 2.6 0.00 0.00 0.00 27 1020.4
20220929182024 89 10 0.9 7.8 0.00 0.00 0.00 28 1020.8
20220929175023 87 203 0.9 2.6 0.00 0.00 0.00 35 1021.3
20220929173023 85 346 0.9 0.9 0.00 0.00 0.00 37 1021.6
20220929170022 84 216 0.0 0.9 0.00 0.00 0.00 39 1022.1
20220929165022 84 336 3.5 4.3 0.00 0.00 0.00 38 1022.3
20220929164024 83 130 1.7 2.6 0.00 0.00 0.00 39 1022.5
20220929163022 83 162 1.7 3.5 0.00 0.00 0.00 40 1022.6
20220929161022 82 221 1.7 3.5 0.00 0.00 0.00 40 1022.9
20220929160023 81 343 1.7 2.6 0.00 0.00 0.00 42 1022.9